Fort Yukon, AK

5:32 PM AKDT on October 20, 2017 (GMT -0800)
Fort Yukon

Weather History for PFYU - October, 2013

Change the Weather History Date:

Sunday, October 20, 2013

  Actual Average Record
Temperature  
Mean Temperature 32 °F -  
Max Temperature 41 °F 18 °F 41 °F (2013)
Min Temperature 24 °F 6 °F -20 °F (1996)
Degree Days  
Heating Degree Days 32    
Moisture  
Dew Point 29 °F    
Average Humidity 87    
Maximum Humidity 93    
Minimum Humidity 80    
Precipitation  
Precipitation 0.00 in - - ()
Sea Level Pressure  
Sea Level Pressure 29.72 in    
Wind  
Wind Speed 2 mph (WSW)    
Max Wind Speed 7 mph    
Max Gust Speed -    
Visibility 10 miles    
Events      
Averages and records for this station are not official NWS values.
T = Trace of Precipitation, MM = Missing Value Source: NWS Daily Summary

Daily Weather History Graph

Daily Weather History Graph

Search for Another Location

Airport or City:

Trip Planner

Search our weather history database for the weather conditions in past years. The results will help you decide how hot, cold, wet, or windy it might be!

Date:

Astronomy

Oct. 20, 2013 Rise Set
Actual Time 8:58 AM AKDT 5:51 PM AKDT
Civil Twilight 8:03 AM AKDT 6:46 PM AKDT
Nautical Twilight 7:02 AM AKDT 7:47 PM AKDT
Astronomical Twilight 6:00 AM AKDT 8:48 PM AKDT
Moon 6:05 PM AKDT (10/20) 11:42 AM AKDT (10/20)
Length of Visible Light 10h 43m
Length of Day
8h 53m
Waning Gibbous, 96% of the Moon is Illuminated
Oct 20
Waning Gibbous
Oct 26
Last Quarter
Nov 3
New
Nov 9
First Quarter
Nov 17
Full

Hourly Weather History & Observations

Time (AKDT) Temp. Windchill Dew Point Humidity Pressure Visibility Wind Dir Wind Speed Gust Speed Precip Events Conditions
12:16 AM 33.8 °F 28.6 °F 30.2 °F 87% 29.52 in 10.0 mi WSW 5.8 mph - N/A   Scattered Clouds
12:36 AM 33.8 °F 27.7 °F 30.2 °F 87% 29.53 in 10.0 mi West 6.9 mph - N/A   Mostly Cloudy
12:56 AM 33.8 °F 28.6 °F 30.2 °F 87% 29.54 in 10.0 mi SW 5.8 mph - N/A   Mostly Cloudy
1:16 AM 33.8 °F 29.6 °F 30.2 °F 87% 29.55 in 10.0 mi SSW 4.6 mph - N/A   Partly Cloudy
1:56 AM 32.0 °F - 28.4 °F 87% 29.57 in 10.0 mi Calm Calm - N/A   Scattered Clouds
2:16 AM 32.0 °F - 28.4 °F 87% 29.58 in 10.0 mi Calm Calm - N/A   Mostly Cloudy
2:36 AM 30.2 °F - 28.4 °F 93% 29.59 in 10.0 mi Calm Calm - N/A   Partly Cloudy
2:56 AM 30.2 °F - 28.4 °F 93% 29.59 in 10.0 mi Calm Calm - N/A   Clear
3:16 AM 30.2 °F 26.7 °F 28.4 °F 93% 29.60 in 10.0 mi SSW 3.5 mph - N/A   Clear
3:36 AM 32.0 °F 28.7 °F 28.4 °F 87% 29.60 in 10.0 mi SSW 3.5 mph - N/A   Clear
3:56 AM 32.0 °F - 28.4 °F 87% 29.61 in 10.0 mi Calm Calm - N/A   Clear
4:16 AM 30.2 °F - 28.4 °F 93% 29.62 in 10.0 mi Calm Calm - N/A   Clear
4:36 AM 30.2 °F - 26.6 °F 86% 29.63 in 10.0 mi Calm Calm - N/A   Clear
4:56 AM 30.2 °F - 26.6 °F 86% 29.63 in 10.0 mi Calm Calm - N/A   Clear
5:16 AM 28.4 °F - 26.6 °F 93% 29.64 in 6.0 mi Calm Calm - N/A   Clear
5:36 AM 28.4 °F - 24.8 °F 86% 29.64 in 10.0 mi Calm Calm - N/A   Clear
5:56 AM 28.4 °F - 24.8 °F 86% 29.65 in 10.0 mi Calm Calm - N/A   Clear
6:16 AM 28.4 °F - 24.8 °F 86% 29.65 in 10.0 mi Calm Calm - N/A   Clear
6:36 AM 28.4 °F - 24.8 °F 86% 29.65 in 10.0 mi Calm Calm - N/A   Clear
6:56 AM 28.4 °F - 24.8 °F 86% 29.66 in 10.0 mi Calm Calm - N/A   Clear
7:16 AM 26.6 °F - 24.8 °F 93% 29.66 in 10.0 mi Calm Calm - N/A   Clear
7:36 AM 26.6 °F - 24.8 °F 93% 29.67 in 10.0 mi Calm Calm - N/A   Clear
7:56 AM 24.8 °F 20.5 °F 21.2 °F 86% 29.67 in 10.0 mi NE 3.5 mph - N/A   Partly Cloudy
8:16 AM 26.6 °F - 21.2 °F 80% 29.67 in 10.0 mi Calm Calm - N/A   Partly Cloudy
8:36 AM 26.6 °F - 23.0 °F 86% 29.68 in 10.0 mi Calm Calm - N/A   Partly Cloudy
8:56 AM 26.6 °F - 23.0 °F 86% 29.68 in 10.0 mi Calm Calm - N/A   Scattered Clouds
9:16 AM 26.6 °F - 23.0 °F 86% 29.69 in 10.0 mi Calm Calm - N/A   Scattered Clouds
9:36 AM 26.6 °F - 23.0 °F 86% 29.69 in 10.0 mi Calm Calm - N/A   Scattered Clouds
9:56 AM 26.6 °F - 24.8 °F 93% 29.69 in 10.0 mi Calm Calm - N/A   Scattered Clouds
10:16 AM 28.4 °F - 24.8 °F 86% 29.70 in 10.0 mi Calm Calm - N/A   Partly Cloudy
10:36 AM 26.6 °F - 24.8 °F 93% 29.71 in 10.0 mi Calm Calm - N/A   Partly Cloudy
10:56 AM 28.4 °F - 24.8 °F 86% 29.71 in 10.0 mi Calm Calm - N/A   Partly Cloudy
11:16 AM 30.2 °F - 28.4 °F 93% 29.72 in 10.0 mi Calm Calm - N/A   Partly Cloudy
11:36 AM 32.0 °F - 28.4 °F 87% 29.73 in 10.0 mi Calm Calm - N/A   Partly Cloudy
11:56 AM 33.8 °F - 30.2 °F 87% 29.73 in 10.0 mi Calm Calm - N/A   Partly Cloudy
12:16 PM 33.8 °F - 30.2 °F 87% 29.74 in 10.0 mi Calm Calm - N/A   Partly Cloudy
12:36 PM 35.6 °F - 32.0 °F 87% 29.74 in 10.0 mi Calm Calm - N/A   Scattered Clouds
12:56 PM 35.6 °F - 32.0 °F 87% 29.75 in 10.0 mi Calm Calm - N/A   Mostly Cloudy
1:16 PM 37.4 °F - 32.0 °F 81% 29.75 in 10.0 mi Calm Calm - N/A   Scattered Clouds
1:36 PM 39.2 °F - 33.8 °F 81% 29.76 in 10.0 mi Calm Calm - N/A   Scattered Clouds
1:56 PM 39.2 °F - 33.8 °F 81% 29.76 in 10.0 mi Calm Calm - N/A   Partly Cloudy
2:16 PM 39.2 °F - 33.8 °F 81% 29.77 in 10.0 mi Calm Calm - N/A   Partly Cloudy
2:36 PM 37.4 °F - 32.0 °F 81% 29.77 in 10.0 mi Calm Calm - N/A   Partly Cloudy
2:56 PM 37.4 °F - 33.8 °F 87% 29.77 in 10.0 mi Calm Calm - N/A   Partly Cloudy
3:16 PM 39.2 °F - 33.8 °F 81% 29.78 in 10.0 mi Calm Calm - N/A   Overcast
3:36 PM 39.2 °F - 33.8 °F 81% 29.78 in 10.0 mi Calm Calm - N/A   Overcast
3:56 PM 37.4 °F - 33.8 °F 87% 29.78 in 10.0 mi Calm Calm - N/A   Mostly Cloudy
4:16 PM 37.4 °F - 33.8 °F 87% 29.78 in 10.0 mi Calm Calm - N/A   Mostly Cloudy
4:36 PM 37.4 °F - 33.8 °F 87% 29.78 in 10.0 mi Calm Calm - N/A   Scattered Clouds
4:56 PM 37.4 °F - 33.8 °F 87% 29.79 in 10.0 mi Calm Calm - N/A   Scattered Clouds
5:16 PM 35.6 °F - 33.8 °F 93% 29.79 in 10.0 mi Calm Calm - N/A   Partly Cloudy
5:36 PM 33.8 °F - 30.2 °F 87% 29.79 in 10.0 mi Calm Calm - N/A   Partly Cloudy
5:56 PM 33.8 °F - 30.2 °F 87% 29.79 in 10.0 mi Calm Calm - N/A   Partly Cloudy
6:16 PM 32.0 °F 28.7 °F 28.4 °F 87% 29.80 in 10.0 mi NNE 3.5 mph - N/A   Overcast
6:36 PM 32.0 °F - 28.4 °F 87% 29.80 in 10.0 mi Calm Calm - N/A   Overcast
6:56 PM 32.0 °F - 28.4 °F 87% 29.80 in 10.0 mi Calm Calm - N/A   Scattered Clouds
7:16 PM 32.0 °F - 28.4 °F 87% 29.81 in 10.0 mi Calm Calm - N/A   Scattered Clouds
7:36 PM 32.0 °F - 28.4 °F 87% 29.82 in 10.0 mi Calm Calm - N/A   Scattered Clouds
8:16 PM 32.0 °F - 30.2 °F 93% 29.82 in 4.0 mi Calm Calm - N/A   Overcast
8:36 PM 32.0 °F - 28.4 °F 87% 29.83 in 4.0 mi Calm Calm - N/A   Overcast
8:56 PM 32.0 °F - 28.4 °F 87% 29.83 in 8.0 mi Calm Calm - N/A   Overcast
9:16 PM 32.0 °F - 28.4 °F 87% 29.83 in 9.0 mi Calm Calm - N/A   Mostly Cloudy
9:36 PM 32.0 °F - 28.4 °F 87% 29.83 in 10.0 mi Calm Calm - N/A   Partly Cloudy
9:56 PM 30.2 °F - 28.4 °F 93% 29.84 in 10.0 mi Calm Calm - N/A   Partly Cloudy
10:16 PM 32.0 °F - 28.4 °F 87% 29.84 in 10.0 mi Calm Calm - N/A   Mostly Cloudy
10:36 PM 32.0 °F - 28.4 °F 87% 29.85 in 10.0 mi Calm Calm - N/A   Overcast
11:16 PM 32.0 °F - 28.4 °F 87% 29.86 in 7.0 mi Calm Calm - N/A   Overcast
11:36 PM 30.2 °F - 28.4 °F 93% 29.86 in 6.0 mi Calm Calm - N/A   Overcast
11:56 PM 30.2 °F - 28.4 °F 93% 29.86 in 4.0 mi Calm Calm - N/A   Overcast